Location: Gugi
(45.4667°N, 11.1000°E)
Time: 03:39:03
(UTC+00:00)

Cosmos 1538 Rocket - Pass Details

Date: 17 November 2019
Orbit: 751 x 793 km, 74.0° (Epoch: 14 December)

Event Time Altitude Azimuth Distance (km) Brightness Sun altitude
Rises 16:25:26 0° 195° (SSW) 3,221 7.8 -7.5°
Reaches altitude 10° 16:27:46 10° 194° (SSW) 2,305 7.0 -7.9°
Maximum altitude 16:33:00 78° 109° (ESE) 798 4.0 -8.8°
Drops below altitude 10° 16:38:21 10° 24° (NNE) 2,349 6.1 -9.7°
Sets 16:40:46 0° 23° (NNE) 3,287 6.9 -10.1°
